Location: Ellerstadt
(49.4644°N, 8.2615°E)
Time: 02:44:46
(UTC+00:00)

Cosmos 2360 Rocket - Pass Details

Date: 03 March 2021
Orbit: 832 x 846 km, 71.0° (Epoch: 16 April)

Event Time Altitude Azimuth Distance (km) Brightness Sun altitude
Rises 20:22:33 0° 245° (WSW) 3,387 5.8 -30.6°
Reaches altitude 10° 20:25:21 10° 258° (WSW) 2,458 5.1 -31.0°
Maximum altitude 20:30:07 28° 315° (NW) 1,555 4.1 -31.7°
Drops below altitude 10° 20:34:56 10° 14° (NNE) 2,476 4.8 -32.3°
Sets 20:37:46 0° 26° (NNE) 3,416 5.4 -32.7°
